Time,TemperatureF,DewpointF,PressureIn,WindDirection,WindDirectionDegrees,WindSpeedMPH,WindSpeedGustMPH,Humidity,HourlyPrecipIn,Conditions,Clouds,dailyrainin,SolarRadiationWatts/m^2,SoftwareType,DateUTC
2013-03-31 00:04:00,60.1,27.0,29.99,NNE,24,0.0,0.0,28,0.00,,,0.00,0,weatherlink.com 1.10,2013-03-31 07:04:00,
2013-03-31 00:19:00,60.3,27.0,29.99,NNE,24,0.0,0.0,28,0.00,,,0.00,0,weatherlink.com 1.10,2013-03-31 07:19:00,
2013-03-31 00:34:00,60.4,28.0,29.99,NNE,24,1.0,1.0,29,0.00,,,0.00,0,weatherlink.com 1.10,2013-03-31 07:34:00,
2013-03-31 00:49:00,60.3,27.0,29.99,NNE,24,1.0,2.0,28,0.00,,,0.00,0,weatherlink.com 1.10,2013-03-31 07:49:00,
2013-03-31 01:04:00,60.0,27.0,29.99,NNE,24,1.0,2.0,28,0.00,,,0.00,0,weatherlink.com 1.10,2013-03-31 08:04:00,
2013-03-31 01:19:00,60.6,27.0,29.99,NNE,24,0.0,2.0,28,0.00,,,0.00,0,weatherlink.com 1.10,2013-03-31 08:19:00,
2013-03-31 01:34:00,60.8,27.0,30.00,NNE,24,1.0,3.0,28,0.00,,,0.00,0,weatherlink.com 1.10,2013-03-31 08:34:00,
2013-03-31 01:49:00,60.9,27.0,29.99,NNE,24,0.0,2.0,28,0.00,,,0.00,0,weatherlink.com 1.10,2013-03-31 08:49:00,
2013-03-31 02:04:00,59.8,27.0,29.99,NNE,24,2.0,2.0,29,0.00,,,0.00,0,weatherlink.com 1.10,2013-03-31 09:04:00,
2013-03-31 02:19:00,59.5,27.0,29.98,NNE,24,0.0,4.0,29,0.00,,,0.00,0,weatherlink.com 1.10,2013-03-31 09:19:00,
2013-03-31 02:34:00,57.0,26.0,29.99,NNE,24,0.0,1.0,31,0.00,,,0.00,0,weatherlink.com 1.10,2013-03-31 09:34:00,
2013-03-31 02:49:00,54.9,26.0,29.99,NNE,24,0.0,0.0,33,0.00,,,0.00,0,weatherlink.com 1.10,2013-03-31 09:49:00,
2013-03-31 03:04:00,54.3,26.0,29.99,NNE,24,0.0,0.0,34,0.00,,,0.00,0,weatherlink.com 1.10,2013-03-31 10:04:00,
2013-03-31 03:19:00,54.2,27.0,29.99,NNE,24,0.0,1.0,35,0.00,,,0.00,0,weatherlink.com 1.10,2013-03-31 10:19:00,
2013-03-31 03:34:00,53.9,27.0,29.99,NNE,24,0.0,1.0,35,0.00,,,0.00,0,weatherlink.com 1.10,2013-03-31 10:34:00,
2013-03-31 03:49:00,54.6,27.0,29.99,NNE,24,0.0,0.0,34,0.00,,,0.00,0,weatherlink.com 1.10,2013-03-31 10:49:00,
2013-03-31 04:04:00,54.5,26.0,29.99,NNE,24,0.0,1.0,34,0.00,,,0.00,0,weatherlink.com 1.10,2013-03-31 11:04:00,
2013-03-31 04:19:00,54.1,26.0,30.00,NNE,24,0.0,2.0,34,0.00,,,0.00,0,weatherlink.com 1.10,2013-03-31 11:19:00,
2013-03-31 04:34:00,53.5,27.0,30.00,NNE,24,0.0,0.0,36,0.00,,,0.00,0,weatherlink.com 1.10,2013-03-31 11:34:00,
2013-03-31 04:49:00,52.8,26.0,30.00,NNE,24,0.0,0.0,36,0.00,,,0.00,0,weatherlink.com 1.10,2013-03-31 11:49:00,
2013-03-31 05:04:00,52.7,27.0,30.01,NNE,24,0.0,0.0,37,0.00,,,0.00,0,weatherlink.com 1.10,2013-03-31 12:04:00,
2013-03-31 05:19:00,51.9,27.0,30.01,NNE,24,2.0,2.0,38,0.00,,,0.00,0,weatherlink.com 1.10,2013-03-31 12:19:00,
2013-03-31 05:34:00,52.0,28.0,30.02,NNE,24,0.0,4.0,39,0.00,,,0.00,0,weatherlink.com 1.10,2013-03-31 12:34:00,
2013-03-31 05:49:00,52.7,28.0,30.02,NNE,24,0.0,1.0,38,0.00,,,0.00,0,weatherlink.com 1.10,2013-03-31 12:49:00,
2013-03-31 06:04:00,51.6,27.0,30.02,NNE,24,1.0,2.0,39,0.00,,,0.00,0,weatherlink.com 1.10,2013-03-31 13:04:00,
2013-03-31 06:20:00,50.8,28.0,30.02,NNE,24,0.0,0.0,41,0.00,,,0.00,9,weatherlink.com 1.10,2013-03-31 13:20:00,
2013-03-31 06:35:00,48.7,27.0,30.02,NNE,24,0.0,2.0,43,0.00,,,0.00,32,weatherlink.com 1.10,2013-03-31 13:35:00,
2013-03-31 06:50:00,50.3,28.0,30.03,NNE,24,0.0,0.0,43,0.00,,,0.00,74,weatherlink.com 1.10,2013-03-31 13:50:00,
2013-03-31 07:05:00,54.1,29.0,30.04,NNE,24,0.0,1.0,38,0.00,,,0.00,135,weatherlink.com 1.10,2013-03-31 14:05:00,
2013-03-31 07:20:00,57.3,29.0,30.04,NNE,24,0.0,2.0,34,0.00,,,0.00,206,weatherlink.com 1.10,2013-03-31 14:20:00,
2013-03-31 07:35:00,60.3,29.0,30.04,NNE,24,0.0,1.0,31,0.00,,,0.00,269,weatherlink.com 1.10,2013-03-31 14:35:00,
2013-03-31 07:50:00,61.4,30.0,30.04,WSW,254,0.0,3.0,30,0.00,,,0.00,329,weatherlink.com 1.10,2013-03-31 14:50:00,
2013-03-31 08:05:00,62.1,30.0,30.04,WSW,254,0.0,2.0,30,0.00,,,0.00,387,weatherlink.com 1.10,2013-03-31 15:05:00,
2013-03-31 08:20:00,64.3,31.0,30.04,WSW,254,3.0,3.0,29,0.00,,,0.00,441,weatherlink.com 1.10,2013-03-31 15:20:00,
2013-03-31 08:35:00,66.3,31.0,30.04,WSW,254,3.0,3.0,27,0.00,,,0.00,496,weatherlink.com 1.10,2013-03-31 15:35:00,
2013-03-31 08:50:00,68.2,30.0,30.04,WSW,254,1.0,3.0,24,0.00,,,0.00,547,weatherlink.com 1.10,2013-03-31 15:50:00,
2013-03-31 09:05:00,69.4,30.0,30.04,WSW,256,3.0,3.0,23,0.00,,,0.00,598,weatherlink.com 1.10,2013-03-31 16:05:00,
2013-03-31 09:20:00,71.1,28.0,30.04,West,263,1.0,7.0,20,0.00,,,0.00,645,weatherlink.com 1.10,2013-03-31 16:20:00,
2013-03-31 09:36:00,72.2,29.0,30.04,West,266,1.0,6.0,20,0.00,,,0.00,691,weatherlink.com 1.10,2013-03-31 16:36:00,
2013-03-31 09:51:00,73.5,29.0,30.05,West,267,2.0,5.0,19,0.00,,,0.00,733,weatherlink.com 1.10,2013-03-31 16:51:00,
2013-03-31 10:06:00,74.2,29.0,30.04,West,271,1.0,5.0,19,0.00,,,0.00,183,weatherlink.com 1.10,2013-03-31 17:06:00,
2013-03-31 10:21:00,75.2,29.0,30.04,West,272,3.0,4.0,18,0.00,,,0.00,490,weatherlink.com 1.10,2013-03-31 17:21:00,
2013-03-31 10:36:00,76.1,28.0,30.04,WNW,288,3.0,7.0,17,0.00,,,0.00,835,weatherlink.com 1.10,2013-03-31 17:36:00,
2013-03-31 10:51:00,76.6,29.0,30.04,WNW,288,0.0,6.0,17,0.00,,,0.00,860,weatherlink.com 1.10,2013-03-31 17:51:00,
2013-03-31 11:06:00,78.0,28.0,30.04,WNW,298,4.0,8.0,16,0.00,,,0.00,884,weatherlink.com 1.10,2013-03-31 18:06:00,
2013-03-31 11:21:00,79.5,28.0,30.03,NW,308,6.0,8.0,15,0.00,,,0.00,905,weatherlink.com 1.10,2013-03-31 18:21:00,
2013-03-31 11:36:00,80.3,27.0,30.03,NW,325,5.0,8.0,14,0.00,,,0.00,918,weatherlink.com 1.10,2013-03-31 18:36:00,
2013-03-31 12:06:00,81.7,26.0,30.01,NNW,332,2.0,9.0,13,0.00,,,0.00,937,weatherlink.com 1.10,2013-03-31 19:06:00,
2013-03-31 12:21:00,82.7,27.0,30.01,NNW,342,4.0,9.0,13,0.00,,,0.00,935,weatherlink.com 1.10,2013-03-31 19:21:00,
2013-03-31 12:36:00,83.5,26.0,30.00,North,360,3.0,12.0,12,0.00,,,0.00,935,weatherlink.com 1.10,2013-03-31 19:36:00,
2013-03-31 12:51:00,82.4,25.0,29.99,NNW,348,1.0,9.0,12,0.00,,,0.00,928,weatherlink.com 1.10,2013-03-31 19:51:00,
2013-03-31 13:06:00,83.5,26.0,29.98,NNW,344,3.0,8.0,12,0.00,,,0.00,918,weatherlink.com 1.10,2013-03-31 20:06:00,
2013-03-31 13:21:00,84.5,24.0,29.98,NNE,21,6.0,11.0,11,0.00,,,0.00,902,weatherlink.com 1.10,2013-03-31 20:21:00,
2013-03-31 13:36:00,84.3,26.0,29.97,NNE,22,3.0,8.0,12,0.00,,,0.00,884,weatherlink.com 1.10,2013-03-31 20:36:00,
2013-03-31 13:51:00,85.4,25.0,29.96,NNE,22,5.0,10.0,11,0.00,,,0.00,860,weatherlink.com 1.10,2013-03-31 20:51:00,
2013-03-31 14:06:00,85.3,25.0,29.95,NNE,19,4.0,8.0,11,0.00,,,0.00,831,weatherlink.com 1.10,2013-03-31 21:06:00,
2013-03-31 14:21:00,85.9,26.0,29.94,North,9,6.0,11.0,11,0.00,,,0.00,803,weatherlink.com 1.10,2013-03-31 21:21:00,
2013-03-31 14:52:00,85.6,23.0,29.93,North,9,6.0,11.0,10,0.00,,,0.00,738,weatherlink.com 1.10,2013-03-31 21:52:00,
2013-03-31 15:07:00,85.5,23.0,29.93,NNW,345,6.0,12.0,10,0.00,,,0.00,694,weatherlink.com 1.10,2013-03-31 22:07:00,
2013-03-31 15:22:00,85.4,25.0,29.92,NNW,345,3.0,11.0,11,0.00,,,0.00,647,weatherlink.com 1.10,2013-03-31 22:22:00,
2013-03-31 15:37:00,86.1,23.0,29.92,North,5,6.0,10.0,10,0.00,,,0.00,598,weatherlink.com 1.10,2013-03-31 22:37:00,
2013-03-31 15:52:00,85.9,23.0,29.91,NNE,14,7.0,13.0,10,0.00,,,0.00,545,weatherlink.com 1.10,2013-03-31 22:52:00,
2013-03-31 16:07:00,85.2,23.0,29.91,North,9,5.0,12.0,10,0.00,,,0.00,464,weatherlink.com 1.10,2013-03-31 23:07:00,
2013-03-31 16:22:00,85.0,23.0,29.90,NE,53,5.0,11.0,10,0.00,,,0.00,244,weatherlink.com 1.10,2013-03-31 23:22:00,
2013-03-31 16:37:00,85.2,23.0,29.90,North,9,6.0,11.0,10,0.00,,,0.00,98,weatherlink.com 1.10,2013-03-31 23:37:00,
2013-03-31 16:52:00,84.4,22.0,29.90,ENE,75,5.0,10.0,10,0.00,,,0.00,79,weatherlink.com 1.10,2013-03-31 23:52:00,
2013-03-31 17:07:00,84.0,22.0,29.89,North,355,4.0,10.0,10,0.00,,,0.00,109,weatherlink.com 1.10,2013-04-01 00:07:00,
2013-03-31 17:22:00,83.5,21.0,29.89,ENE,62,2.0,9.0,10,0.00,,,0.00,77,weatherlink.com 1.10,2013-04-01 00:22:00,
2013-03-31 17:52:00,82.1,23.0,29.89,ENE,59,3.0,8.0,11,0.00,,,0.00,67,weatherlink.com 1.10,2013-04-01 00:52:00,
2013-03-31 18:07:00,81.6,20.0,29.89,East,86,7.0,8.0,10,0.00,,,0.00,44,weatherlink.com 1.10,2013-04-01 01:07:00,
2013-03-31 18:22:00,80.2,21.0,29.89,NE,55,2.0,8.0,11,0.00,,,0.00,18,weatherlink.com 1.10,2013-04-01 01:22:00,
2013-03-31 18:37:00,78.9,22.0,29.89,ENE,57,0.0,3.0,12,0.00,,,0.00,5,weatherlink.com 1.10,2013-04-01 01:37:00,
2013-03-31 18:52:00,77.2,23.0,29.89,ENE,57,1.0,5.0,13,0.00,,,0.00,0,weatherlink.com 1.10,2013-04-01 01:52:00,
2013-03-31 19:07:00,76.0,23.0,29.90,ENE,57,0.0,3.0,14,0.00,,,0.00,0,weatherlink.com 1.10,2013-04-01 02:07:00,
2013-03-31 19:22:00,74.6,24.0,29.90,ENE,57,0.0,1.0,15,0.00,,,0.00,0,weatherlink.com 1.10,2013-04-01 02:22:00,
2013-03-31 19:37:00,73.6,23.0,29.90,ENE,57,0.0,0.0,15,0.00,,,0.00,0,weatherlink.com 1.10,2013-04-01 02:37:00,
2013-03-31 19:52:00,72.2,23.0,29.90,ENE,57,0.0,0.0,16,0.00,,,0.00,0,weatherlink.com 1.10,2013-04-01 02:52:00,
2013-03-31 20:07:00,71.3,23.0,29.91,ENE,57,0.0,0.0,16,0.00,,,0.00,0,weatherlink.com 1.10,2013-04-01 03:07:00,
2013-03-31 20:22:00,70.3,23.0,29.91,ENE,57,0.0,1.0,17,0.00,,,0.00,0,weatherlink.com 1.10,2013-04-01 03:22:00,
2013-03-31 20:37:00,69.4,24.0,29.92,ENE,57,0.0,0.0,18,0.00,,,0.00,0,weatherlink.com 1.10,2013-04-01 03:37:00,
2013-03-31 20:52:00,68.4,24.0,29.93,ENE,57,0.0,1.0,19,0.00,,,0.00,0,weatherlink.com 1.10,2013-04-01 03:52:00,
2013-03-31 21:07:00,67.7,24.0,29.93,ENE,57,2.0,4.0,19,0.00,,,0.00,0,weatherlink.com 1.10,2013-04-01 04:07:00,
2013-03-31 21:22:00,67.3,25.0,29.93,ENE,57,0.0,2.0,20,0.00,,,0.00,0,weatherlink.com 1.10,2013-04-01 04:22:00,
2013-03-31 21:37:00,66.9,24.0,29.94,ENE,57,1.0,3.0,20,0.00,,,0.00,0,weatherlink.com 1.10,2013-04-01 04:37:00,
2013-03-31 21:52:00,65.9,25.0,29.94,ENE,57,0.0,0.0,21,0.00,,,0.00,0,weatherlink.com 1.10,2013-04-01 04:52:00,
2013-03-31 22:07:00,64.7,25.0,29.95,ENE,57,0.0,2.0,22,0.00,,,0.00,0,weatherlink.com 1.10,2013-04-01 05:07:00,
2013-03-31 22:22:00,63.8,24.0,29.95,ENE,57,0.0,1.0,22,0.00,,,0.00,0,weatherlink.com 1.10,2013-04-01 05:22:00,
2013-03-31 22:37:00,62.9,24.0,29.96,ENE,57,1.0,1.0,23,0.00,,,0.00,0,weatherlink.com 1.10,2013-04-01 05:37:00,
2013-03-31 22:52:00,61.4,23.0,29.96,ENE,57,1.0,2.0,23,0.00,,,0.00,0,weatherlink.com 1.10,2013-04-01 05:52:00,
2013-03-31 23:07:00,61.6,22.0,29.96,ENE,57,2.0,3.0,22,0.00,,,0.00,0,weatherlink.com 1.10,2013-04-01 06:07:00,
2013-03-31 23:37:00,61.1,22.0,29.96,ENE,57,3.0,3.0,22,0.00,,,0.00,0,weatherlink.com 1.10,2013-04-01 06:37:00,
2013-03-31 23:52:00,61.4,21.0,29.96,ENE,57,1.0,2.0,21,0.00,,,0.00,0,weatherlink.com 1.10,2013-04-01 06:52:00,